Weather in Thessaloniki

Greece     40°37′56″N   22°56′08″E
temp.,
°C
wind,
m/s
gust,
m/s
humid.,
%
clouds,
%
prec.,
mm/h
press.,
hPa
HPBL,
m
24 may, tue
tue2400:00+19nnw117697 0.4 101014
03:00+18ne117645 0.4 100912
06:00+18e22759 0.1 101027
09:00+22ese226287 0.1 1011365
12:00+27ssw324510 0.0 10111194
15:00+28sw54425 0.0 10111138
18:00+26sw45500 0.0 1010638
21:00+21wnw22745 0.7 101235
25 may, wed
wed2500:00+19ne1286100 1.4 101490
03:00+18nw1185100 1.4 101419
06:00+17n118648 0.0 101415
09:00+22ene01670 0.0 1015314
12:00+28ssw22460 0.0 10161036
15:00+29sw43450 0.0 1016933
18:00+27wsw33490 0.0 1016586
21:00+22sse01690 0.0 1017135
26 may, thu
thu2600:00+20nne12770 0.0 101877
03:00+19nnw11805 0.0 101924
06:00+18nnw11838 0.0 101821
09:00+23nw226212 0.0 1019329
12:00+29wnw334399 0.0 1019821
15:00+33w22305 0.0 10181568
18:00+32wsw333544 0.0 1017724
21:00+21se3672100 0.6 1020248
27 may, fri
fri2700:00+21ne1172100 0.1 102054
03:00+20nw11765 0.2 102062
06:00+19nne117829 0.2 101926
09:00+23nnw115995 0.2 1019299
12:00+29wsw214219 0.0 10181048
15:00+31sw533766 0.0 10161531
18:00+29sw33415 0.0 1015715
21:00+23e126651 0.2 101687
28 may, sat
sat2800:00+20nnw2382100 0.4 1016145
03:00+20nnw2280100 0.4 101494
06:00+20ne1176100 0.0 101338
09:00+23w016116 0.0 1013402
12:00+29w114348 0.0 1012971
15:00+31sw433510 0.0 10111749
18:00+28sw32434 0.0 1010580
21:00+24nw11621 0.0 101093